Weather History for Fort Indiantown Gap, PA

Change the Weather History Date:

Wednesday, November 7, 2012

  Actual Average Record
Temperature  
Mean Temperature 39 °F -  
Max Temperature 44 °F 52 °F 69 °F (1996)
Min Temperature 34 °F 36 °F 27 °F (2011)
Degree Days  
Heating Degree Days 26    
Moisture  
Dew Point 20 °F    
Average Humidity 48    
Maximum Humidity 61    
Minimum Humidity 38    
Precipitation  
Precipitation 0.00 in - - ()
Sea Level Pressure  
Sea Level Pressure 29.96 in    
Wind  
Wind Speed 7 mph (North)    
Max Wind Speed 23 mph    
Max Gust Speed 33 mph    
Visibility 10 miles    
Events      
Averages and records for this station are not official NWS values.
T = Trace of Precipitation, MM = Missing Value Source: NWS Daily Summary

Daily Weather History Graph

Daily Weather History Graph

Search for Another Location

Airport:

Trip Planner

Search our weather history database for the weather conditions in past years. The results will help you decide how hot, cold, wet, or windy it might be!

Date:

Astronomy

Nov. 07, 2012 Rise Set
Actual Time 6:43 AM EST 4:55 PM EST
Civil Twilight 6:14 AM EST 5:24 PM EST
Nautical Twilight 5:42 AM EST 5:57 PM EST
Astronomical Twilight 5:10 AM EST 6:28 PM EST
Moon No Moon Rise 1:05 PM EST (11/7)
Length of Visible Light 11h 09m
Length of Day
10h 12m
Last Quarter, 43% of the Moon is Illuminated
Nov 7
Last Quarter
Nov 13
New
Nov 20
First Quarter
Nov 28
Full
Dec 6
Last Quarter

Hourly Weather History & Observations

Time (EST) Temp. Windchill Dew Point Humidity Pressure Visibility Wind Dir Wind Speed Gust Speed Precip Events Conditions
12:55 AM 34.0 °F 31.0 °F 21.7 °F 61% 30.07 in 10.0 mi North 3.5 mph - N/A   Partly Cloudy
1:55 AM 34.5 °F 28.6 °F 20.1 °F 56% 30.03 in 10.0 mi NNE 6.9 mph - N/A   Clear
2:55 AM 34.5 °F 28.6 °F 19.2 °F 54% 30.01 in 10.0 mi NNE 6.9 mph - N/A   Clear
3:55 AM 34.3 °F 27.0 °F 19.4 °F 54% 29.99 in 10.0 mi NNE 9.2 mph - N/A   Clear
4:55 AM 34.2 °F 27.5 °F 19.9 °F 56% 29.98 in 10.0 mi NNE 8.1 mph - N/A   Partly Cloudy
5:55 AM 34.0 °F 28.8 °F 19.6 °F 56% 29.99 in 10.0 mi NE 5.8 mph - N/A   Mostly Cloudy
6:55 AM 34.7 °F 28.8 °F 18.1 °F 51% 30.01 in 10.0 mi NE 6.9 mph - N/A   Overcast
7:55 AM 35.4 °F 31.5 °F 18.7 °F 51% 30.01 in 10.0 mi NNE 4.6 mph - N/A   Partly Cloudy
8:55 AM 36.7 °F 32.0 °F 19.2 °F 49% 29.99 in 10.0 mi North 5.8 mph - N/A   Mostly Cloudy
9:55 AM 38.7 °F 33.6 °F 21.9 °F 51% 29.96 in 10.0 mi NE 6.9 mph - N/A   Clear
10:55 AM 41.0 °F 37.1 °F 24.3 °F 51% 29.96 in 10.0 mi Variable 5.8 mph - N/A   Mostly Cloudy
11:55 AM 42.3 °F 37.9 °F 25.0 °F 50% 29.94 in 10.0 mi North 6.9 mph - N/A   Mostly Cloudy
12:55 PM 44.4 °F 40.5 °F 25.5 °F 48% 29.93 in 10.0 mi North 6.9 mph - N/A   Partly Cloudy
1:55 PM 43.5 °F 40.9 °F 22.8 °F 44% 29.93 in 10.0 mi NNW 4.6 mph - N/A   Scattered Clouds
2:55 PM 43.0 °F 40.3 °F 22.8 °F 45% 29.93 in 10.0 mi Variable 4.6 mph - N/A   Clear
3:55 PM 42.8 °F 37.0 °F 21.7 °F 43% 29.93 in 10.0 mi North 10.4 mph - N/A   Scattered Clouds
4:55 PM 42.4 °F 36.1 °F 20.5 °F 42% 29.94 in 10.0 mi North 11.5 mph 18.4 mph N/A   Overcast
5:55 PM 41.9 °F 35.4 °F 17.8 °F 38% 29.95 in 10.0 mi North 11.5 mph - N/A   Scattered Clouds
6:55 PM 40.6 °F 37.5 °F 18.5 °F 41% 29.95 in 10.0 mi Variable 4.6 mph - N/A   Mostly Cloudy
7:55 PM 40.5 °F - 18.3 °F 41% 29.94 in 10.0 mi Calm Calm - N/A   Mostly Cloudy
8:36 PM 41.0 °F 31.6 °F 19.4 °F 42% 29.92 in 10.0 mi NNW 20.7 mph 31.1 mph N/A   Clear
8:47 PM 41.0 °F 31.1 °F 19.4 °F 42% 29.92 in 10.0 mi North 23.0 mph 33.4 mph N/A   Partly Cloudy
8:55 PM 40.5 °F 30.7 °F 19.4 °F 43% 29.92 in 10.0 mi North 21.9 mph 31.1 mph 0.00 in   Clear
9:55 PM 40.3 °F 33.9 °F 19.2 °F 43% 29.94 in 10.0 mi North 10.4 mph - N/A   Mostly Cloudy
10:55 PM 39.7 °F 32.7 °F 18.5 °F 42% 29.94 in 10.0 mi North 11.5 mph - N/A   Overcast
11:55 PM 39.0 °F 33.4 °F 17.1 °F 41% 29.93 in 10.0 mi NNW 8.1 mph - N/A   Overcast